Simultaneous Nadir Overpasses (SNOs) Predictions

Prediction of SNOs between GOES-17 and METOP-B Satellite Orbit:

Table of predicted SNOs for the next 14.0 days since TLE Epoch: 3/23/2024
Index Date Time (GOES-17) GOES-17 Lat,Lon METOP-B Lat,Lon Distance(km) Time Diff (sec)
1 03/23/2024 16:29:27 -0.00,-104.68 0.40,-106.50 207.40 80
2 03/24/2024 16:11:27 -0.00,-104.68 -0.69,-101.51 361.25 80
3 03/26/2024 04:30:28 0.00,-104.68 -0.34,-106.11 163.75 80
4 03/27/2024 04:07:08 0.00,-104.68 0.76,-101.12 404.73 80
5 03/28/2024 16:26:00 0.00,-104.68 0.24,-105.70 116.21 80
6 03/29/2024 16:08:01 0.00,-104.68 -0.87,-100.71 452.33 80
7 03/31/2024 04:27:01 -0.01,-104.68 -0.14,-105.32 72.91 80
8 04/01/2024 04:03:42 -0.00,-104.67 0.98,-100.33 495.11 80
9 04/02/2024 16:22:33 -0.00,-104.67 0.06,-104.90 26.87 80
10 04/05/2024 04:20:53 0.00,-104.66 0.02,-104.51 16.43 80
